Terminal Aerodrome Forecast
Issued by NWS Omaha/Valley, NE

Home | Current Version | Previous Version | Graphics & Text | Print | Product List | Glossary On
Versions: 1 2 3 4 5 6 7 8 9 10 11 12 13 14 15 16 17 18 19 20 21 22 23 24 25 26 27 28 29 30 31 32
000
FTUS43 KOAX 081120
TAFOFK
TAF
KOFK 081120Z 0812/0912 30010KT P6SM FEW250
     FM081400 31013G21KT P6SM FEW250
     FM081700 32016G25KT P6SM SCT050
     FM082300 32012KT P6SM FEW050
     FM090200 30004KT P6SM SKC=

USA.gov is the U.S. government's official web portal to all federal, state and local government web resources and services.